Philip, SD

7:34 PM MST on February 07, 2016 (GMT -0700)
Philip

Weather History for KPHP - May, 2013

Change the Weather History Date:

Wednesday, May 29, 2013

  Actual Average Record
Temperature  
Mean Temperature 65 °F 62 °F  
Max Temperature 73 °F 74 °F - ()
Min Temperature 57 °F 49 °F - ()
Degree Days  
Heating Degree Days 0 5  
Month to date heating degree days 259 258  
Since 1 July heating degree days 7009 7125  
Cooling Degree Days 0 1  
Month to date cooling degree days 21 24  
Year to date cooling degree days 21 27  
Growing Degree Days 14 (Base 50)    
Moisture  
Dew Point 59 °F    
Average Humidity 83    
Maximum Humidity 100    
Minimum Humidity 66    
Precipitation  
Precipitation 0.01 in 0.09 in - ()
Month to date precipitation 2.15 2.83  
Year to date precipitation 5.33 6.72  
Sea Level Pressure  
Sea Level Pressure 29.52 in    
Wind  
Wind Speed 8 mph (East)    
Max Wind Speed 21 mph    
Max Gust Speed 25 mph    
Visibility 9 miles    
Events Rain    
T = Trace of Precipitation, MM = Missing Value Source: NWS Daily Summary

Daily Weather History Graph

Daily Weather History Graph

Search for Another Location

Airport or City:

Trip Planner

Search our weather history database for the weather conditions in past years. The results will help you decide how hot, cold, wet, or windy it might be!

Date:

Astronomy

May. 29, 2013 Rise Set
Actual Time 5:07 AM MDT 8:20 PM MDT
Civil Twilight 4:32 AM MDT 8:55 PM MDT
Nautical Twilight 3:47 AM MDT 9:41 PM MDT
Astronomical Twilight 2:52 AM MDT 10:36 PM MDT
Moon No Moon Rise 10:15 AM MDT (5/29)
Length of Visible Light 16h 22m
Length of Day
15h 12m
Waning Gibbous, 72% of the Moon is Illuminated
May 29
Waning Gibbous
May 31
Last Quarter
Jun 8
New
Jun 16
First Quarter
Jun 23
Full

Hourly Weather History & Observations

Time (MDT) Temp. Dew Point Humidity Pressure Visibility Wind Dir Wind Speed Gust Speed Precip Events Conditions
12:55 AM 57.9 °F 54.0 °F 87% 29.61 in 10.0 mi East 11.5 mph - N/A   Clear
1:55 AM 57.0 °F 55.0 °F 93% 29.60 in 10.0 mi East 6.9 mph - N/A   Partly Cloudy
2:55 AM 57.0 °F 55.9 °F 96% 29.59 in 10.0 mi East 5.8 mph - N/A   Clear
3:55 AM 57.9 °F 55.9 °F 93% 29.59 in 10.0 mi ESE 9.2 mph - N/A   Scattered Clouds
4:55 AM 57.0 °F 55.9 °F 96% 29.57 in 10.0 mi East 5.8 mph - N/A   Clear
5:55 AM 57.0 °F 55.9 °F 96% 29.56 in 10.0 mi Calm Calm - N/A   Clear
6:55 AM 59.0 °F 57.0 °F 93% 29.57 in 10.0 mi Calm Calm - N/A   Clear
7:55 AM 62.1 °F 57.0 °F 84% 29.60 in 10.0 mi East 6.9 mph - N/A   Clear
8:55 AM 66.0 °F 57.0 °F 73% 29.58 in 10.0 mi SSE 6.9 mph - N/A   Clear
9:55 AM 66.0 °F 57.0 °F 73% 29.57 in 10.0 mi East 6.9 mph - N/A   Clear
10:43 AM 68.0 °F 57.2 °F 68% 29.59 in 10.0 mi East 5.8 mph - N/A   Mostly Cloudy
10:55 AM 69.1 °F 57.9 °F 68% 29.55 in 10.0 mi Variable 5.8 mph - N/A   Mostly Cloudy
11:14 AM 69.8 °F 59.0 °F 68% 29.58 in 10.0 mi East 5.8 mph - N/A   Partly Cloudy
11:55 AM 70.0 °F 57.9 °F 65% 29.55 in 10.0 mi East 8.1 mph - N/A   Mostly Cloudy
12:55 PM 69.1 °F 59.0 °F 70% 29.53 in 10.0 mi ESE 10.4 mph - N/A   Overcast
1:55 PM 71.1 °F 59.0 °F 66% 29.51 in 10.0 mi ENE 11.5 mph - N/A   Mostly Cloudy
2:55 PM 70.0 °F 59.0 °F 68% 29.49 in 10.0 mi East 9.2 mph 21.9 mph N/A   Overcast
3:55 PM 72.0 °F 60.1 °F 66% 29.43 in 10.0 mi ENE 9.2 mph - N/A   Scattered Clouds
4:55 PM 70.0 °F 60.1 °F 71% 29.46 in 10.0 mi East 13.8 mph - N/A   Mostly Cloudy
5:55 PM 66.9 °F 62.1 °F 84% 29.45 in 10.0 mi East 19.6 mph 25.3 mph N/A   Overcast
6:06 PM 66.2 °F 62.6 °F 88% 29.48 in 10.0 mi East 19.6 mph - N/A   Overcast
6:24 PM 64.4 °F 62.6 °F 94% 29.49 in 10.0 mi East 17.3 mph - 0.01 in Rain Light Rain
6:55 PM 64.9 °F 62.1 °F 90% 29.45 in 10.0 mi East 12.7 mph - 0.01 in   Partly Cloudy
7:14 PM 64.4 °F 62.6 °F 94% 29.48 in 10.0 mi East 9.2 mph - N/A   Mostly Cloudy
7:43 PM 64.4 °F 62.6 °F 94% 29.48 in 10.0 mi ENE 10.4 mph - N/A   Overcast
7:55 PM 64.0 °F 62.1 °F 93% 29.44 in 10.0 mi ENE 11.5 mph - N/A   Overcast
8:55 PM 63.0 °F 61.0 °F 93% 29.43 in 7.0 mi ENE 9.2 mph - N/A   Overcast
9:37 PM 62.6 °F 60.8 °F 94% 29.49 in 7.0 mi ENE 9.2 mph - N/A   Overcast
9:55 PM 63.0 °F 61.0 °F 93% 29.46 in 6.0 mi East 11.5 mph - N/A   Overcast
10:55 PM 62.1 °F 62.1 °F 100% 29.45 in 5.0 mi East 5.8 mph - N/A   Overcast
11:05 PM 62.6 °F 62.6 °F 100% 29.49 in 5.0 mi East 3.5 mph - N/A   Overcast
11:32 PM 62.6 °F 60.8 °F 94% 29.48 in 5.0 mi NE 3.5 mph - N/A   Scattered Clouds
11:55 PM 62.1 °F 61.0 °F 96% 29.43 in 5.0 mi NE 5.8 mph - N/A   Mostly Cloudy